DALIAN-1 LIANLI

导读 | 星芒AI

大连-1(Dalian-1)是由大连理工大学研制的一颗小型科学实验卫星,属于“连理”系列卫星之一。该卫星主要用于验证微小卫星平台技术、开展空间环境探测及通信实验。其设计注重轻量化与模块化,具备较高的技术集成度。Dalian-1的成功发射不仅推动了高校在航天领域的科研能力,也为未来微纳卫星的发展积累了宝贵经验。

基本信息
目录编号:
58816
目录名称:
DALIAN-1 LIANLI
国际标识:
2023-063C
轨道中心:
EARTH
卫星名称:
DALIAN-1 LIANLI
卫星全名:
--
卫星状态:
已陨落 最后检测时间 2024-04-23
发射日期:
2023-05-10 UTC
国别 :
中国 (CN)
星等 :
--
轨道信息
数据来源 国际轨道数据
星历时间: 2024-04-18T00:56:43+0800
轨道信息已过期607天
半长轴: 6589.043km
偏心率: 0.0018203
轨道倾角: 41.465°
近地点辐角 156.493°
升交点赤经 82.071°
平近点角 203.677°
近地点: 198.913km
远地点: 222.903km
周期: 88.714分钟
每日圈数: 16.231898
详细信息
使用方式:
暂无